This is the latest recevied weather packets stored in our database for station/object N8SHA. If no packets are shown the sender has not sent any weather packets the latest 10 day(s).
| Time | Temp. | Humidity | Pressure | Rain* | Wind** | Luminosity | Snow |
|---|---|---|---|---|---|---|---|
| 1777146207 | 8.89° C | 89% | 1015.2 hPa | 0 mm | - | 141 W/m² | - |
| 1777145903 | 9.44° C | 89% | 1015 hPa | 0 mm | - | 137 W/m² | - |
| 1777145600 | 8.89° C | 89% | 1014.9 hPa | 0 mm | - | 143 W/m² | - |
| 1777145294 | 9.44° C | 90% | 1014.9 hPa | 0 mm | - | 159 W/m² | - |
| 1777144989 | 8.89° C | 90% | 1014.7 hPa | 0 mm | - | 168 W/m² | - |
| 1777144689 | 8.89° C | 91% | 1014.5 hPa | 0 mm | - | 177 W/m² | - |
| 1777144384 | 8.89° C | 89% | 1014.7 hPa | 0 mm | - | 155 W/m² | - |
| 1777144081 | 8.89° C | 89% | 1014.5 hPa | 0 mm | - | 162 W/m² | - |
| 1777143776 | 9.44° C | 89% | 1014.6 hPa | 0 mm | - | 191 W/m² | - |
| 1777143468 | 9.44° C | 89% | 1014.7 hPa | 0 mm | - | 203 W/m² | - |
| 1777143163 | 9.44° C | 89% | 1014.5 hPa | 0 mm | - | 207 W/m² | - |
| 1777142859 | 9.44° C | 89% | 1014.4 hPa | 0 mm | - | 246 W/m² | - |
| 1777142556 | 9.44° C | 89% | 1014.4 hPa | 0 mm | - | 244 W/m² | - |
| 1777142255 | 8.89° C | 89% | 1014.4 hPa | 0 mm | - | 237 W/m² | - |
| 1777141953 | 8.89° C | 90% | 1014.3 hPa | 0 mm | - | 264 W/m² | - |
| 1777141650 | 8.89° C | 90% | 1014.4 hPa | 0 mm | - | 251 W/m² | - |
| 1777141348 | 8.89° C | 91% | 1014.3 hPa | 0 mm | - | 219 W/m² | - |
| 1777141044 | 8.89° C | 91% | 1014.4 hPa | 0 mm | - | 189 W/m² | - |
| 1777140741 | 8.33° C | 91% | 1014.5 hPa | 0 mm | - | 210 W/m² | - |
| 1777140437 | 8.33° C | 91% | 1014.3 hPa | 0 mm | - | 197 W/m² | - |
| 1777140134 | 8.33° C | 91% | 1014.4 hPa | 0 mm | - | 207 W/m² | - |
| 1777139832 | 8.33° C | 91% | 1014.3 hPa | 0 mm | - | 205 W/m² | - |
| 1777139529 | 8.33° C | 92% | 1014.4 hPa | 0 mm | - | 192 W/m² | - |
| 1777139223 | 8.33° C | 92% | 1014.5 hPa | 0 mm | - | 183 W/m² | - |
| 1777138921 | 8.33° C | 92% | 1014.4 hPa | 0 mm | - | 181 W/m² | - |
* Rain latest hour (hover to see other rain measurements)
** Current wind speed in m/s (hover to see current wind gust speed)